This is the latest recevied weather packets stored in our database for station/object N7MLR. If no packets are shown the sender has not sent any weather packets the latest 1 day(s).
| Time | Temp. | Humidity | Pressure | Rain* | Wind** | Luminosity | Snow |
|---|---|---|---|---|---|---|---|
| 1778074959 | 23.33° C | 94% | 1009.3 hPa | 0 mm | - | 51 W/m² | - |
| 1778073747 | 23.33° C | 94% | 1008.9 hPa | 0 mm | - | 25 W/m² | - |
| 1778073445 | 23.33° C | 94% | 1009 hPa | 0 mm | - | 30 W/m² | - |
| 1778071930 | 23.89° C | 93% | 1008.6 hPa | 0 mm | - | 19 W/m² | - |
| 1778071326 | 23.33° C | 94% | 1008.8 hPa | 0 mm | - | 16 W/m² | - |
| 1778071023 | 23.33° C | 95% | 1008.5 hPa | 0 mm | - | 19 W/m² | - |
| 1778070722 | 22.78° C | 96% | 1008.5 hPa | 0 mm | - | 15 W/m² | - |
| 1778070418 | 22.78° C | 96% | 1008.5 hPa | 0 mm | - | 11 W/m² | - |
| 1778068603 | 22.78° C | 96% | 1008.7 hPa | 0 mm | - | 0 W/m² | - |
| 1778067394 | 22.78° C | 96% | 1008.5 hPa | 0 mm | - | 0 W/m² | - |
| 1778065577 | 22.78° C | 96% | 1008.3 hPa | 0 mm | - | 0 W/m² | - |
| 1778064366 | 22.78° C | 96% | 1008.5 hPa | 0 mm | - | 0 W/m² | - |
| 1778064063 | 22.78° C | 96% | 1008.5 hPa | 0 mm | - | 0 W/m² | - |
| 1778063760 | 22.78° C | 96% | 1008.4 hPa | 0 mm | - | 0 W/m² | - |
| 1778063155 | 22.78° C | 96% | 1008.5 hPa | 0 mm | - | 0 W/m² | - |
| 1778062852 | 22.78° C | 95% | 1008.3 hPa | 0 mm | - | 0 W/m² | - |
| 1778062246 | 23.33° C | 94% | 1008.3 hPa | 0 mm | - | 0 W/m² | - |
| 1778061944 | 23.33° C | 94% | 1008.5 hPa | 0 mm | - | 0 W/m² | - |
| 1778061642 | 23.33° C | 94% | 1008.2 hPa | 0 mm | - | 0 W/m² | - |
| 1778060735 | 23.33° C | 93% | 1008.3 hPa | 0 mm | - | 0 W/m² | - |
| 1778059827 | 22.78° C | 94% | 1008 hPa | 0 mm | - | 0 W/m² | - |
| 1778059525 | 22.78° C | 94% | 1008.2 hPa | 0 mm | - | 0 W/m² | - |
| 1778057404 | 22.78° C | 96% | 1008.2 hPa | 0 mm | - | 0 W/m² | - |
| 1778057101 | 22.78° C | 96% | 1007.8 hPa | 0 mm | - | 0 W/m² | - |
| 1778056797 | 22.78° C | 96% | 1007.9 hPa | 0 mm | - | 0 W/m² | - |
* Rain latest hour (hover to see other rain measurements)
** Current wind speed in m/s (hover to see current wind gust speed)